Hourly Data Report for October 11, 2016

All times are specified in Local Standard Time (LST). Add 1 hour to adjust for Daylight Saving Time where and when it is observed.

ST LEONARD CS
NEW BRUNSWICK

47°09'28.050" N
67°49'55.014" W
245.00 m
810I001
71019
WIY

Download Data

Hourly Data (October 2016)
Hourly Data Report for October 11, 2016
Temp Definition
°C
Dew Point Temp Definition
°C
Rel Hum Definition
%
Wind Dir Definition
10's deg

Wind Spd Definition
km/h
Visibility Definition
km
Stn Press Definition
kPa
Hmdx Definition


Wind Chill Definition


Weather Definition


TIME
00:00 -0.1 -2.0 87 32 9   99.49   -3 LegendNANA
01:00 -1.2 -2.3 92 31 5   99.55   -3 LegendNANA
02:00 -1.7 -2.5 94 16 1   99.60   -2 LegendNANA
03:00 -1.2 -1.8 96 32 5   99.63   -3 LegendNANA
04:00 -1.1 -1.7 96 32 7   99.67   -4 LegendNANA
05:00 -1.0 -1.7 96 27 2   99.74   -2 LegendNANA
06:00 -1.8 -2.3 96 15 4   99.77   -3 LegendNANA
07:00 -2.1 -2.6 96 19 3   99.79   -3 LegendNANA
08:00 1.4 -0.4 88 0 1   99.81     LegendNANA
09:00 4.1 0.9 80 19 2   99.84     LegendNANA
10:00 7.0 0.3 62 22 3   99.88     LegendNANA
11:00 9.8 1.1 54 19 8   99.86     LegendNANA
12:00 12.1 1.3 47 18 9   99.84     LegendNANA
13:00 12.8 0.7 44 20 9   99.78     LegendNANA
14:00 14.0 0.4 39 19 13   99.73     LegendNANA
15:00 15.4 0.2 35 22 12   99.69     LegendNANA
16:00 16.3 0.2 34 22 9   99.69     LegendNANA
17:00 15.8 1.3 38 19 8   99.66     LegendNANA
18:00 13.4 1.1 43 21 9   99.68     LegendNANA
19:00 11.2 2.6 55 17 11   99.68     LegendNANA
20:00 10.8 1.4 52 20 8   99.70     LegendNANA
21:00 9.5 1.5 57 19 10   99.70     LegendNANA
22:00 7.9 1.5 64 18 8   99.71     LegendNANA
23:00 8.7 1.4 60 19 12   99.71     LegendNANA

Notes on Data Quality.

Legend

  • E = Estimated
  • M = Missing
  • NA = Not Available
  • ‡ = Partner data that is not subject to review by the National Climate Archives
Date modified: